Weather History for KNSI - February, 2013

Change the Weather History Date:

Wednesday, February 20, 2013

  Actual Average Record
Temperature  
Mean Temperature 51 °F -  
Max Temperature 57 °F - - ()
Min Temperature 45 °F - - ()
Degree Days  
Heating Degree Days 14    
Growing Degree Days 1 (Base 50)    
Moisture  
Dew Point 38 °F    
Average Humidity 60    
Maximum Humidity 75    
Minimum Humidity 44    
Precipitation  
Precipitation 0.01 in - - ()
Sea Level Pressure  
Sea Level Pressure 29.88 in    
Wind  
Wind Speed 28 mph (WNW)    
Max Wind Speed 40 mph    
Max Gust Speed 53 mph    
Visibility 8 miles    
Events      
T = Trace of Precipitation, MM = Missing Value Source: NWS Daily Summary

Daily Weather History Graph

Daily Weather History Graph

Search for Another Location

Airport or City:

Trip Planner

Search our weather history database for the weather conditions in past years. The results will help you decide how hot, cold, wet, or windy it might be!

Date:

Astronomy

Feb. 20, 2013 Rise Set
Actual Time 6:35 AM PST 5:47 PM PST
Civil Twilight 6:10 AM PST 6:12 PM PST
Nautical Twilight 5:41 AM PST 6:41 PM PST
Astronomical Twilight 5:13 AM PST 7:10 PM PST
Moon 1:21 PM PST (2/20) 2:51 AM PST (2/20)
Length of Visible Light 12h 01m
Length of Day
11h 11m
Waxing Gibbous, 77% of the Moon is Illuminated
Feb 20
Waxing Gibbous
Feb 25
Full
Mar 4
Last Quarter
Mar 11
New
Mar 19
First Quarter

Hourly Weather History & Observations

Time (PST) Temp. Windchill Dew Point Humidity Pressure Visibility Wind Dir Wind Speed Gust Speed Precip Events Conditions
12:53 AM 53.1 °F - 35.1 °F 50% 29.79 in 10.0 mi WNW 23.0 mph 33.4 mph N/A   Clear
1:53 AM 51.1 °F - 37.9 °F 61% 29.79 in 10.0 mi WNW 21.9 mph 33.4 mph N/A   Mostly Cloudy
2:53 AM 51.1 °F - 37.9 °F 61% 29.79 in 10.0 mi WNW 20.7 mph - 0.01 in   Overcast
3:53 AM 50.0 °F - 39.0 °F 66% 29.78 in 10.0 mi WNW 28.8 mph 34.5 mph N/A   Mostly Cloudy
4:53 AM 48.9 °F - 37.0 °F 64% 29.79 in 10.0 mi WNW 29.9 mph 46.0 mph N/A   Overcast
5:53 AM 45.9 °F 36.4 °F 36.0 °F 68% 29.80 in 7.0 mi WNW 29.9 mph 42.6 mph N/A   Partly Cloudy
6:53 AM 47.1 °F - 27.5 °F 47% 29.81 in 7.0 mi WNW 26.5 mph 41.4 mph N/A   Scattered Clouds
7:53 AM 47.8 °F - 27.7 °F 46% 29.83 in 7.0 mi WNW 34.5 mph 44.9 mph N/A   Scattered Clouds
8:53 AM 48.6 °F - 28.4 °F 46% 29.85 in 7.0 mi WNW 34.5 mph 44.9 mph N/A   Scattered Clouds
9:53 AM 48.7 °F - 29.8 °F 48% 29.88 in 7.0 mi WNW 33.4 mph 46.0 mph N/A   Partly Cloudy
10:53 AM 48.9 °F - 30.2 °F 48% 29.90 in 7.0 mi WNW 26.5 mph 41.4 mph N/A   Partly Cloudy
11:53 AM 55.0 °F - 33.6 °F 44% 29.88 in 7.0 mi WNW 40.3 mph 49.5 mph N/A   Partly Cloudy
12:53 PM 52.9 °F - 42.8 °F 69% 29.88 in 7.0 mi NW 33.4 mph 40.3 mph N/A   Partly Cloudy
1:53 PM 51.3 °F - 43.0 °F 73% 29.88 in 7.0 mi WNW 40.3 mph 52.9 mph N/A   Partly Cloudy
2:53 PM 52.0 °F - 43.7 °F 73% 29.90 in 7.0 mi WNW 32.2 mph 47.2 mph N/A   Partly Cloudy
3:53 PM 51.8 °F - 44.2 °F 75% 29.90 in 7.0 mi WNW 34.5 mph 46.0 mph N/A   Scattered Clouds
4:53 PM 57.0 °F - 42.1 °F 57% 29.91 in 10.0 mi WNW 33.4 mph 44.9 mph N/A   Clear
5:53 PM 55.0 °F - 42.1 °F 62% 29.92 in 9.0 mi WNW 33.4 mph 42.6 mph N/A   Clear
6:53 PM 54.0 °F - 42.1 °F 64% 29.94 in 10.0 mi WNW 26.5 mph 41.4 mph N/A   Clear
7:53 PM 55.0 °F - 43.0 °F 64% 29.96 in 9.0 mi WNW 26.5 mph 34.5 mph N/A   Clear
8:53 PM 55.0 °F - 44.1 °F 67% 29.99 in 9.0 mi WNW 27.6 mph 35.7 mph N/A   Scattered Clouds
9:53 PM 55.0 °F - 43.0 °F 64% 30.00 in 9.0 mi WNW 24.2 mph 35.7 mph N/A   Clear
10:53 PM 55.0 °F - 44.1 °F 67% 30.00 in 9.0 mi WNW 24.2 mph 34.5 mph N/A   Clear
11:53 PM 55.0 °F - 44.1 °F 67% 30.01 in 9.0 mi WNW 26.5 mph 33.4 mph N/A   Scattered Clouds